* Astronomy

Members Login
Username 
 
Password 
    Remember Me  
Post Info TOPIC: Asteroid 2012 JQ


L

Posts: 131433
Date:
Asteroid 2012 JQ
Permalink  
 


Orbital elements:
2012 JQ                                                  Earth MOID = 0.0394 AU
Epoch 2012 Mar. 14.0 TT = JDT 2456000.5                 MPC
M 351.54059              (2000.0)            P               Q
n   0.29123364     Peri.  151.05554     -0.96244291     +0.26196189
a   2.2541096      Node    44.32041     -0.26456665     -0.84613718
e   0.5462373      Incl.    5.85493     -0.06089448     -0.46414204
P   3.38           H   23.1           G   0.15           U   7

MPEC 2012 - J32



__________________
Page 1 of 1  sorted by
 
Quick Reply

Please log in to post quick replies.



Create your own FREE Forum
Report Abuse
Powered by ActiveBoard